Tracking 35275 objects as of 8-Sep-2026
HD Live streaming from Space Station
objects crossing your sky now

PROGNOZ 3


PROGNOZ 3 is classified as:


NORAD ID: 6364
Int'l Code: 1973-009A
Launch date: February 15, 1973
Source: Commonwealth of Independent States (former USSR) (CIS)
Launch site: TYURATAM MISSILE AND SPACE COMPLEX (TTMTR)
Your satellite tracking list
Your tracking list is empty




NASA's NSSDC Master Catalog

Two Line Element Set (TLE):
1  6364U 73009A   76188.08625000 +.00001878 +00000-0 +10000-3 0  9997
2  6364 065.0020 197.0800 9317300 290.7900 090.5950 00.24962625005930
Source of the keplerian elements: AFSPC